Date,TemperatureHighF,TemperatureAvgF,TemperatureLowF,DewpointHighF,DewpointAvgF,DewpointLowF,HumidityHigh,HumidityAvg,HumidityLow,PressureMaxIn,PressureMinIn,WindSpeedMaxMPH,WindSpeedAvgMPH,GustSpeedMaxMPH,PrecipitationSumIn
2013-1-1,48.7,45.5,41.7,48.2,38.8,21.5,98,80,41,30.06,29.91,6,0,6,0.16
2013-1-2,48.4,44.9,39.9,47.8,40.6,29.6,98,86,51,30.15,29.88,4,0,0,0.24
2013-1-3,45.9,39.7,29.3,39.9,34.7,28.4,98,84,52,30.24,30.12,4,0,0,0.00
2013-1-4,50.7,36.9,25.5,33.9,20.2,11.0,98,60,21,30.27,30.15,5,0,5,0.00
2013-1-5,51.1,36.7,24.3,28.8,20.1,13.5,88,56,24,30.36,30.21,5,0,5,0.00
2013-1-6,51.8,42.1,36.0,37.8,32.5,25.3,94,72,39,30.21,30.03,4,0,0,0.00
2013-1-7,53.1,38.8,29.3,34.5,26.5,18.8,98,68,28,30.39,30.15,4,0,5,0.00
2013-1-8,55.2,40.0,27.0,37.0,30.5,24.7,98,73,33,30.44,30.33,4,0,0,0.00
2013-1-9,67.6,49.0,33.8,47.2,40.2,33.3,98,76,37,30.42,30.30,5,0,5,0.00
2013-1-10,65.7,51.9,43.9,50.0,39.5,29.3,98,68,29,30.50,30.39,3,0,0,0.00
2013-1-11,49.1,46.3,41.2,48.6,42.3,26.2,98,88,43,30.42,30.12,0,0,0,0.20
2013-1-12,72.0,57.1,49.1,65.5,54.8,48.6,98,93,64,30.15,30.06,4,0,0,0.00
2013-1-13,75.9,60.7,52.0,68.0,54.8,50.4,98,84,43,30.12,30.03,5,0,5,0.00
2013-1-14,65.3,61.1,56.5,64.2,59.5,55.8,98,95,72,30.12,30.06,2,0,0,0.12
2013-1-15,57.2,46.0,44.2,56.6,45.4,43.7,98,98,97,30.21,30.03,4,0,0,0.04
2013-1-16,49.8,45.8,42.3,49.3,45.3,41.7,98,98,98,30.06,29.94,0,0,0,0.25
2013-1-17,50.9,48.6,34.5,50.4,48.1,33.8,98,98,97,30.03,29.88,10,0,10,1.20
2013-1-18,45.9,36.3,27.3,36.3,25.5,14.4,98,70,30,30.50,30.24,6,0,6,0.39
2013-1-19,55.2,36.5,23.7,38.5,24.7,16.9,98,70,26,30.48,30.12,6,0,6,0.08
2013-1-20,64.0,44.3,31.5,36.5,28.2,20.7,98,62,21,30.12,29.94,6,0,6,0.00
2013-1-21,60.6,42.7,27.5,39.3,22.5,9.5,98,54,19,30.06,29.83,6,0,6,0.00
2013-1-22,40.6,32.6,22.3,11.6,2.3,-4.5,45,28,21,30.24,29.94,6,0,6,0.00
2013-1-23,42.6,27.8,16.0,12.4,5.3,-2.7,67,41,21,30.33,30.00,5,0,5,0.00
2013-1-24,37.6,29.7,22.3,18.7,5.4,-6.1,66,38,22,30.48,29.94,8,0,8,0.00
2013-1-25,27.5,24.2,19.8,25.8,10.3,-3.2,94,59,29,30.48,30.06,4,0,0,0.00
2013-1-26,37.9,30.5,26.2,32.5,28.2,24.9,98,92,72,30.36,30.06,0,0,0,0.12
2013-1-27,41.5,30.8,20.5,30.2,22.0,15.4,98,74,35,30.56,30.36,3,0,0,0.04
2013-1-28,51.1,42.2,31.1,46.5,33.2,25.3,98,73,40,30.48,30.21,6,0,6,0.00
2013-1-29,74.1,57.7,44.1,55.3,47.5,42.2,98,74,33,30.21,30.03,6,0,6,0.00
2013-1-30,72.7,66.0,56.1,63.0,58.6,53.4,98,79,56,30.03,29.41,13,2,13,0.33
2013-1-31,61.5,46.3,30.9,58.2,24.3,9.7,93,47,21,29.97,29.44,13,1,13,0.13
2013-2-1,41.2,33.8,24.4,23.3,7.4,-4.3,75,36,21,30.36,29.85,13,1,13,0.00
2013-2-2,44.1,32.8,17.6,24.4,5.7,-1.4,62,33,20,30.39,30.00,6,0,6,0.00
2013-2-3,50.7,41.3,33.1,34.2,22.1,14.0,88,50,27,30.00,29.83,6,0,6,0.00
2013-2-4,49.6,37.6,25.0,22.3,15.4,8.6,75,44,21,30.12,29.97,6,0,6,0.00
2013-2-5,60.3,45.0,35.8,29.9,24.7,21.2,75,47,24,29.97,29.85,6,0,6,0.00
2013-2-6,64.6,44.0,29.1,40.8,23.3,13.4,97,54,16,30.27,29.94,5,0,5,0.00
2013-2-7,47.7,40.4,33.8,42.5,31.8,21.2,98,73,44,30.30,29.97,5,0,5,0.47
2013-2-8,57.2,45.8,38.8,42.6,36.0,19.5,98,73,37,30.03,29.80,7,0,7,0.44
2013-2-9,54.3,39.3,27.0,30.5,17.0,8.2,90,46,18,30.33,30.03,6,0,6,0.00
2013-2-10,54.1,38.4,23.4,39.6,18.7,9.7,92,52,18,30.48,30.18,5,0,5,0.04
2013-2-11,61.7,53.1,41.7,60.8,52.0,39.8,98,96,87,30.18,29.88,5,0,0,0.04
2013-2-12,63.0,52.4,43.7,54.3,30.4,16.4,98,50,18,30.06,29.88,6,0,6,0.00
2013-2-13,47.7,45.7,40.1,47.1,43.6,31.6,98,93,54,29.94,29.62,0,0,0,0.37
2013-2-14,53.8,40.8,30.6,42.0,28.4,17.3,98,69,27,30.03,29.83,7,0,7,0.00
2013-2-15,65.8,43.5,27.7,43.5,27.0,17.0,98,63,18,30.06,29.88,6,0,6,0.00
2013-2-16,45.5,36.5,30.0,35.3,30.5,22.1,98,82,46,29.94,29.80,5,0,5,0.35
2013-2-17,39.4,29.5,21.9,26.6,9.7,-1.1,87,48,21,30.24,29.91,8,0,8,0.00
2013-2-18,53.2,33.6,16.0,22.7,13.0,6.7,88,50,18,30.39,30.21,6,0,6,0.00
2013-2-19,50.4,39.4,28.6,49.8,35.7,18.4,98,87,51,30.21,29.83,8,0,8,0.16
2013-2-20,55.9,39.0,25.9,35.1,19.5,8.5,98,56,17,30.12,29.94,8,0,8,0.00
2013-2-21,57.4,40.8,24.3,20.2,12.4,7.9,72,35,17,30.24,30.09,5,0,5,0.00
2013-2-22,42.4,36.4,32.7,36.2,30.1,11.9,98,81,29,30.33,30.12,4,0,0,0.31
2013-2-23,44.2,40.5,36.7,43.7,40.0,36.0,98,98,98,30.12,29.80,0,0,0,0.55
2013-2-24,65.7,49.2,35.8,50.7,33.0,15.4,98,63,19,30.03,29.77,9,0,9,0.04
2013-2-25,43.2,37.3,32.7,29.6,17.1,11.1,82,46,29,30.21,30.03,5,0,5,0.00
2013-2-26,55.6,44.1,34.3,54.8,38.1,17.1,98,82,45,30.12,29.56,5,0,5,0.73
2013-2-27,63.1,49.6,40.6,45.2,35.8,24.3,98,67,24,29.77,29.62,6,0,6,0.00
2013-2-28,51.6,41.4,32.5,40.8,27.0,16.2,98,63,26,29.83,29.68,5,0,5,0.00
2013-3-1,51.8,39.2,27.1,36.4,22.1,15.7,96,56,27,29.88,29.83,5,0,2,0.00
2013-3-2,53.2,38.1,27.0,29.2,18.3,11.0,90,50,23,29.91,29.80,6,0,6,0.00
2013-3-3,50.4,36.2,26.4,15.4,11.1,7.3,60,37,21,29.97,29.83,6,0,6,0.00
2013-3-4,54.3,36.6,23.4,16.4,9.7,5.6,54,35,18,30.09,29.94,6,0,6,0.00
2013-3-5,47.5,40.9,32.5,44.6,31.2,15.8,98,72,32,30.06,29.56,0,0,0,0.25
2013-3-6,48.6,42.3,36.3,43.5,27.2,16.4,98,60,31,30.00,29.50,10,1,10,0.00
2013-3-7,53.6,42.2,31.6,26.4,19.7,15.5,74,43,26,30.21,30.00,8,0,8,0.00
2013-3-8,57.7,43.5,31.6,20.5,17.0,11.4,61,37,19,30.27,30.12,9,0,9,0.00
2013-3-9,66.4,46.6,32.4,25.1,20.1,14.4,64,39,15,30.33,30.21,7,0,6,0.00
2013-3-10,70.7,49.2,29.5,37.0,23.1,13.4,89,47,15,30.30,30.18,7,0,7,0.00
2013-3-11,70.7,60.4,34.7,47.5,39.3,17.8,71,47,26,30.21,29.91,8,1,8,0.00
2013-3-12,72.9,61.5,49.5,63.3,48.0,19.9,98,66,29,29.94,29.77,6,0,6,0.67
2013-3-13,60.8,46.7,33.1,34.7,19.2,8.4,88,38,17,30.12,29.94,8,0,6,0.00
2013-3-14,57.2,41.3,28.6,16.7,10.6,6.4,50,30,17,30.21,30.06,6,0,6,0.00
2013-3-15,66.2,45.4,25.7,29.0,19.7,11.4,74,41,17,30.18,29.88,8,0,8,0.00
2013-3-16,79.5,59.1,39.7,45.0,34.7,28.3,79,46,20,29.88,29.65,8,1,8,0.00
2013-3-17,59.2,50.8,40.6,52.6,39.7,30.1,95,68,42,30.15,29.83,7,0,7,0.00
2013-3-18,42.4,40.3,38.1,41.6,39.1,37.1,98,96,87,30.18,29.83,5,0,0,0.25
2013-3-19,70.7,52.5,40.5,49.5,28.9,9.0,98,55,14,30.00,29.80,8,0,8,0.00
2013-3-20,59.4,47.1,35.6,19.2,10.4,3.5,51,23,17,30.09,29.77,8,0,8,0.00
2013-3-21,50.7,39.7,30.7,30.2,11.1,-1.1,75,33,19,29.94,29.71,6,0,6,0.00
2013-3-22,55.4,38.2,22.3,15.8,8.2,2.4,56,31,18,30.06,29.94,6,0,6,0.00
2013-3-23,58.5,43.9,32.9,26.1,18.5,11.5,67,39,19,30.03,29.88,4,0,4,0.00
2013-3-24,40.6,37.8,32.9,39.3,34.3,25.9,98,88,67,29.91,29.56,5,0,5,0.65
2013-3-25,54.0,41.4,35.6,40.8,26.3,13.5,98,63,26,29.80,29.56,8,1,8,0.00
2013-3-26,54.0,42.1,29.7,26.0,18.1,15.0,77,40,26,30.09,29.80,5,0,5,0.00
2013-3-27,56.8,42.6,32.7,21.5,16.0,8.0,63,37,18,30.21,30.09,7,0,6,0.00
2013-3-28,60.6,43.8,28.8,22.3,16.8,11.4,72,38,17,30.27,30.12,6,0,6,0.00
2013-3-29,63.9,45.3,27.5,30.4,19.0,12.7,80,41,16,30.30,30.15,6,0,6,0.00
2013-3-30,71.1,52.8,37.6,34.8,26.0,17.0,69,40,17,30.21,30.06,6,0,6,0.00
2013-3-31,69.6,56.2,47.5,57.1,47.9,34.8,98,76,42,30.06,29.80,6,0,6,0.46
2013-4-1,77.2,61.5,51.8,58.1,42.1,24.3,98,60,18,29.97,29.80,7,0,7,0.04
2013-4-2,65.5,49.7,34.3,33.5,21.4,12.1,83,38,15,30.15,29.97,6,0,6,0.00
2013-4-3,65.5,49.2,36.1,27.5,17.4,10.3,61,31,15,30.27,30.12,7,0,7,0.00
2013-4-4,50.9,42.5,39.2,39.4,26.6,12.2,98,59,28,30.36,29.91,7,0,5,0.59
2013-4-5,66.2,49.5,39.2,45.9,38.7,27.2,98,73,26,30.00,29.85,3,0,0,0.08
2013-4-6,70.3,53.2,39.4,40.8,24.8,11.7,98,41,14,30.24,30.00,5,0,5,0.00
2013-4-7,75.6,56.4,36.5,38.9,30.8,25.7,88,43,18,30.27,30.09,9,0,9,0.00
2013-4-8,83.8,64.2,46.9,54.0,42.4,35.1,93,52,19,30.15,30.03,8,0,8,0.00
2013-4-9,91.6,71.1,54.0,59.7,47.3,37.7,98,52,17,30.18,30.03,8,0,8,0.00
2013-4-10,93.0,73.5,56.7,60.3,49.5,39.7,93,51,17,30.09,29.94,6,0,6,0.00
2013-4-11,84.4,71.8,61.0,62.4,53.8,43.8,90,57,25,29.97,29.80,8,0,8,0.00
2013-4-12,84.6,72.1,62.8,69.9,58.7,36.1,98,67,28,29.80,29.62,10,1,10,0.41
2013-4-13,80.6,63.7,48.6,43.4,33.4,23.0,76,37,15,30.00,29.77,6,0,6,0.00
2013-4-14,88.0,64.0,42.6,53.2,37.2,25.6,98,48,13,30.09,30.00,5,0,5,0.00
2013-4-15,75.2,64.7,57.7,58.7,52.6,42.8,98,69,32,30.18,30.00,5,0,5,0.04
2013-4-16,85.6,67.9,60.1,58.9,53.6,42.6,94,66,26,30.30,30.18,4,0,4,0.00
2013-4-17,87.3,69.2,55.6,64.5,55.8,47.5,98,68,30,30.21,30.09,5,0,5,0.00
2013-4-18,85.6,71.1,60.3,61.7,53.5,43.6,93,58,25,30.18,30.03,5,0,4,0.00
2013-4-19,82.9,71.4,65.8,66.4,61.8,54.0,98,75,38,30.06,29.71,9,1,9,0.53
2013-4-20,71.4,56.3,44.1,65.3,36.4,18.4,98,56,17,30.24,29.80,6,0,4,0.04
2013-4-21,69.1,52.6,39.9,41.9,31.8,23.3,98,51,22,30.44,30.24,6,0,6,0.00
2013-4-22,68.0,51.9,37.4,44.7,30.3,21.3,85,48,22,30.44,30.24,6,0,6,0.00
2013-4-23,74.8,55.9,47.5,49.1,42.3,32.5,94,66,24,30.24,30.09,5,0,5,0.00
2013-4-24,81.7,62.5,45.3,58.5,47.1,40.0,98,65,24,30.12,29.94,7,0,7,0.00
2013-4-25,79.5,62.3,47.8,56.2,36.9,26.4,91,44,15,30.24,30.00,6,0,6,0.00
2013-4-26,79.2,59.1,41.2,50.3,35.0,22.8,98,53,15,30.39,30.24,4,0,0,0.00
2013-4-27,78.3,62.7,50.9,51.8,40.5,27.9,80,50,18,30.36,30.24,5,0,0,0.00
2013-4-28,60.4,57.1,53.1,57.4,53.6,48.7,98,88,71,30.24,30.06,0,0,0,0.57
2013-4-29,77.7,62.8,55.9,65.4,59.8,55.1,98,91,47,30.06,29.94,0,0,0,0.62
2013-4-30,67.8,61.2,55.9,60.4,57.3,53.1,98,88,60,30.15,29.97,0,0,0,0.00
2013-5-1,64.2,59.6,56.1,58.6,56.2,54.2,98,89,76,30.30,30.15,4,0,0,0.00
2013-5-2,64.2,59.1,54.1,57.9,54.9,52.5,98,86,68,30.30,30.24,2,0,0,0.00
2013-5-3,73.0,58.9,49.1,53.4,44.9,32.9,98,65,32,30.24,30.15,5,0,3,0.00
2013-5-4,68.0,56.7,50.0,47.9,43.1,37.7,80,62,36,30.21,30.06,7,0,7,0.00
2013-5-5,59.9,55.4,50.5,56.5,48.7,43.1,95,79,64,30.09,29.97,5,0,0,0.00
2013-5-6,67.1,60.2,56.7,66.2,59.3,54.6,98,97,86,29.97,29.83,2,0,0,1.49
2013-5-7,75.9,60.1,51.3,65.1,51.6,35.2,98,78,24,29.94,29.83,0,0,0,0.00
2013-5-8,72.7,61.5,52.3,59.7,53.6,44.5,98,79,40,29.97,29.91,3,0,0,0.33
2013-5-9,86.9,67.7,55.0,69.6,54.8,40.6,98,72,21,30.03,29.94,4,0,4,0.00
2013-5-10,90.0,71.4,55.0,66.7,54.6,42.4,98,64,20,30.03,29.91,5,0,0,0.00
2013-5-11,86.2,71.5,66.2,69.6,60.3,47.8,98,72,29,29.94,29.77,6,0,6,0.21
2013-5-12,79.5,66.2,53.1,65.8,45.2,25.8,98,57,18,30.00,29.80,8,0,5,0.00
2013-5-13,72.9,56.9,42.8,44.9,31.0,20.1,88,44,16,30.15,30.00,6,0,6,0.00
2013-5-14,77.4,57.9,38.7,47.2,33.1,23.1,97,49,15,30.24,30.03,5,0,5,0.00
2013-5-15,94.3,69.6,51.1,58.8,47.6,39.9,80,51,18,30.06,29.88,5,0,0,0.00
2013-5-16,89.4,73.8,60.4,65.7,55.5,43.1,97,60,21,29.97,29.88,5,0,0,0.00
2013-5-17,93.7,75.5,61.7,65.1,55.8,41.3,95,59,18,30.06,29.97,3,0,0,0.08
2013-5-18,79.0,69.2,62.2,70.1,63.9,56.5,98,84,48,30.15,30.06,0,0,0,1.11
2013-5-19,78.4,68.9,64.4,74.3,67.2,63.8,98,95,64,30.12,30.03,0,0,0,1.07
2013-5-20,79.9,69.8,67.8,72.7,68.6,63.7,98,96,72,30.09,30.00,3,0,0,0.66
2013-5-21,87.6,74.3,68.4,75.2,68.7,62.3,98,85,46,30.03,29.94,3,0,0,0.04
2013-5-22,88.9,75.3,69.4,69.8,65.3,55.3,98,75,33,30.00,29.88,4,0,0,0.00
2013-5-23,82.9,73.4,67.8,72.1,66.7,58.8,98,82,47,29.94,29.80,3,0,0,0.28
2013-5-24,74.5,65.3,52.5,66.9,48.3,26.4,98,62,22,30.15,29.80,7,0,7,0.76
2013-5-25,80.1,59.7,42.3,47.0,35.5,23.0,95,50,15,30.24,30.09,5,0,0,0.00
2013-5-26,81.0,61.4,46.4,51.7,41.4,28.5,91,57,17,30.24,30.15,5,0,0,0.00
2013-5-27,85.6,66.6,49.3,59.5,46.4,35.8,98,58,19,30.24,30.12,2,0,0,0.00
2013-5-28,88.7,72.4,58.5,63.5,56.3,50.4,96,62,30,30.21,30.12,5,0,4,0.00
2013-5-29,73.8,65.5,61.7,65.4,61.0,59.6,96,86,66,30.21,30.15,0,0,0,0.00
2013-6-1,93.4,84.1,72.1,64.2,55.9,39.8,76,42,24,30.21,30.00,4,0,4,0.00
2013-6-2,89.6,78.0,68.4,70.3,61.1,52.5,94,59,31,30.03,29.88,5,0,0,0.12
2013-6-3,86.0,73.7,66.6,76.2,69.5,57.7,98,88,49,29.94,29.83,0,0,0,0.54
2013-6-4,76.6,69.4,65.3,68.0,64.3,57.3,98,85,54,30.09,29.91,0,0,0,0.00
2013-6-5,88.2,72.7,63.1,66.2,57.9,43.7,98,66,25,30.12,30.00,4,0,0,0.00
2013-6-6,73.9,71.0,65.8,73.2,65.9,52.6,98,85,56,30.03,29.80,3,0,0,0.58
2013-6-7,72.1,70.5,69.1,71.5,69.9,68.5,98,98,98,29.85,29.53,0,0,0,3.81
2013-6-8,88.0,74.2,66.4,72.4,66.2,55.3,98,81,36,30.09,29.80,0,0,0,0.48
2013-6-9,93.6,77.2,66.0,74.4,65.7,53.7,98,74,28,30.15,30.03,0,0,0,0.04
2013-6-10,81.3,74.2,71.1,78.5,72.5,69.2,98,94,78,30.09,29.88,0,0,0,0.46
2013-6-11,92.1,77.8,69.4,70.9,62.8,49.1,96,67,25,29.94,29.88,5,0,5,0.00
2013-6-12,95.9,79.0,64.9,73.8,65.6,56.5,98,70,29,29.97,29.85,0,0,0,0.00
2013-6-13,100.0,84.1,72.0,78.4,67.8,53.8,98,67,26,29.85,29.59,4,0,0,0.00
2013-6-15,92.7,79.5,66.4,63.4,54.0,41.7,90,46,21,30.06,29.62,0,0,0,0.00
2013-6-16,91.9,76.2,63.0,66.5,59.4,53.6,94,61,30,30.09,29.97,4,0,0,0.00
2013-6-17,90.0,77.5,70.5,69.5,64.5,59.7,81,66,39,30.03,29.91,0,0,0,0.00
2013-6-18,85.5,74.3,70.3,73.8,69.0,64.0,98,85,49,29.97,29.77,0,0,0,0.66
2013-6-19,76.1,70.5,68.2,69.7,68.8,62.5,98,95,65,30.12,29.62,0,0,0,0.00
2013-6-20,89.1,74.3,65.1,66.5,58.2,46.4,98,64,25,30.24,30.12,2,0,0,0.00
2013-6-21,90.5,73.2,57.9,61.8,51.7,38.6,91,55,18,30.24,30.18,4,0,0,0.00
2013-6-22,86.9,74.1,67.1,68.2,65.8,59.6,93,77,42,30.21,30.09,3,0,0,0.00
2013-6-23,93.2,77.8,67.6,71.8,66.7,54.2,98,73,29,30.21,30.12,0,0,0,0.00
2013-6-24,91.6,78.6,71.8,75.4,69.1,61.4,95,75,39,30.21,30.06,0,0,0,0.04
2013-6-25,97.9,78.8,69.4,70.5,66.7,57.6,97,71,28,30.12,30.00,0,0,0,0.00
2013-6-26,98.4,78.5,69.6,71.8,67.4,53.3,98,75,29,30.03,29.88,0,0,0,0.29
2013-6-27,93.7,77.6,68.2,78.1,70.5,61.5,98,82,36,29.91,29.71,0,0,0,0.04
2013-6-28,96.8,79.8,71.4,73.8,68.6,57.8,98,75,30,29.74,29.56,0,0,0,0.59
2013-6-29,87.6,76.3,70.3,76.9,71.2,64.8,98,86,50,29.74,29.59,0,0,0,0.49
2013-6-30,91.4,75.0,69.4,78.5,71.5,62.3,98,91,41,29.85,29.71,0,0,0,3.86
2013-7-1,85.1,75.1,70.3,75.9,72.0,67.5,98,91,62,29.97,29.83,0,0,0,0.66
2013-7-2,75.4,74.1,72.9,74.1,72.8,70.7,98,96,93,30.18,29.97,0,0,0,0.20
2013-7-3,88.7,76.9,73.2,79.3,74.1,67.7,98,92,55,30.24,30.12,0,0,0,0.33
2013-7-4,92.1,79.9,73.0,77.8,70.7,58.9,98,77,40,30.27,30.15,0,0,0,0.00
2013-7-5,94.5,81.5,72.7,74.3,68.8,58.2,98,70,32,30.24,30.12,0,0,0,0.00
2013-7-6,92.7,80.7,74.1,73.4,69.1,59.1,95,71,36,30.24,30.09,0,0,0,0.00
2013-7-7,92.1,78.8,70.0,73.9,69.6,62.1,98,76,39,30.18,30.06,0,0,0,0.04
2013-7-8,93.7,79.2,72.5,79.0,70.8,59.3,98,79,32,30.15,30.06,0,0,0,0.08
2013-7-9,92.1,77.3,72.3,76.0,72.9,67.8,97,88,48,30.15,30.03,0,0,0,0.13
2013-7-10,92.5,79.2,71.6,76.1,71.1,62.2,98,80,39,30.09,29.94,6,0,6,0.29
2013-7-11,80.1,75.1,73.0,77.9,73.7,71.9,98,96,81,29.97,29.88,0,0,0,0.29
2013-7-12,76.3,73.0,70.7,74.1,70.7,66.7,98,93,76,30.03,29.85,7,0,7,0.00
2013-7-13,78.3,73.6,70.2,77.0,72.1,68.4,98,95,87,30.15,30.00,0,0,0,0.20
2013-7-14,93.6,78.4,70.0,82.0,72.4,61.3,98,85,38,30.27,30.15,5,0,4,0.08
2013-7-15,97.7,80.9,69.8,81.3,68.3,54.7,98,72,27,30.30,30.24,3,0,0,0.00
2013-7-16,101.3,83.1,69.4,79.6,69.0,57.3,98,70,26,30.27,30.15,4,0,0,0.00
2013-7-17,100.0,84.8,75.4,80.9,71.9,59.3,98,71,29,30.21,30.09,2,0,0,0.00
2013-7-18,100.2,83.3,73.9,83.4,73.3,59.0,97,76,27,30.12,30.03,0,0,0,0.04
2013-7-19,95.5,82.4,73.9,77.4,70.7,60.4,98,72,33,30.09,29.97,5,0,5,0.00
2013-7-20,92.1,80.8,75.0,73.9,70.4,63.6,91,73,41,30.03,29.91,6,0,6,0.00
2013-7-21,91.8,79.4,74.1,75.1,71.2,63.3,97,78,43,29.97,29.88,5,0,0,0.00
2013-7-22,93.0,79.6,71.8,78.1,70.7,63.4,98,78,39,29.94,29.83,6,0,6,0.00
2013-7-23,96.1,82.1,73.9,72.6,67.9,57.0,92,67,29,29.85,29.74,6,0,6,0.00
2013-7-24,100.8,82.8,70.3,74.2,65.6,52.4,96,63,22,29.85,29.74,4,0,4,0.00
2013-7-25,85.5,73.6,67.3,70.9,65.9,58.3,98,79,43,30.03,29.83,6,0,6,0.46
2013-7-26,91.4,74.7,63.0,69.3,61.0,47.3,98,69,25,30.09,30.00,4,0,0,0.00
2013-7-27,90.0,73.5,65.7,72.1,65.8,53.5,98,81,33,30.06,29.94,3,0,0,0.08
2013-7-28,92.8,77.9,69.3,76.5,67.7,55.0,98,76,29,30.00,29.91,5,0,5,0.00
2013-7-29,94.5,77.2,67.6,75.4,63.4,49.7,98,70,25,30.15,29.97,5,0,5,0.12
2013-7-30,94.1,76.2,61.3,69.3,60.2,45.0,97,66,21,30.21,30.12,4,0,0,0.00
2013-7-31,85.8,76.6,70.7,73.5,68.5,61.1,97,78,44,30.15,30.00,6,0,0,0.25
2013-8-1,91.2,76.1,70.5,74.3,70.9,61.9,98,86,41,30.03,29.85,5,0,4,0.24
2013-8-2,95.4,77.5,66.4,77.7,66.5,52.7,98,75,28,30.00,29.88,4,0,4,0.66
2013-8-3,92.7,77.1,70.0,76.0,70.9,64.0,98,84,41,30.00,29.91,6,0,4,0.04
2013-8-4,90.0,76.1,66.7,75.1,64.1,48.8,98,73,28,30.03,29.88,5,0,0,0.00
2013-8-5,89.2,74.5,65.1,67.0,60.4,47.0,97,67,25,30.09,29.97,3,0,0,0.00
2013-8-6,84.0,74.0,67.1,72.4,63.9,55.6,98,73,40,30.06,29.97,5,0,5,0.16
2013-8-7,90.9,77.3,68.9,72.1,66.2,55.5,96,73,32,30.09,30.00,4,0,0,0.00
2013-8-8,94.1,79.9,70.9,74.3,68.5,56.1,97,72,29,30.06,29.97,3,0,0,0.00
2013-8-9,96.8,81.7,73.4,76.2,69.5,62.5,97,71,34,30.03,29.97,5,0,5,0.00
2013-8-10,100.0,81.0,73.9,76.1,71.3,59.1,98,78,29,30.09,29.97,5,0,5,0.83
2013-8-11,100.6,80.6,72.0,78.8,71.6,57.6,98,80,27,30.09,30.00,0,0,0,0.12
2013-8-12,99.9,82.2,72.3,79.8,70.7,56.9,98,75,27,30.03,29.91,4,0,0,0.08
2013-8-13,94.1,78.8,71.8,76.6,72.3,63.8,98,83,38,29.97,29.77,4,0,0,0.71
2013-8-14,78.3,73.8,71.2,72.3,63.9,52.9,97,73,45,30.00,29.83,4,0,0,0.00
2013-8-15,82.8,71.5,60.6,60.7,55.8,40.3,95,61,25,30.15,30.00,5,0,5,0.00
2013-8-16,71.1,65.4,59.5,63.8,59.2,53.0,98,82,57,30.18,30.09,5,0,0,0.00
2013-8-17,72.1,67.0,62.1,71.2,65.3,59.8,98,94,82,30.18,30.09,0,0,0,0.28
2013-8-18,84.4,73.0,68.2,73.0,67.3,58.3,98,84,46,30.21,30.09,3,0,0,0.04
2013-8-19,74.7,70.0,67.1,73.3,68.9,65.3,98,96,90,30.18,30.09,0,0,0,0.46
2013-8-20,87.8,74.5,66.4,75.9,69.4,61.0,98,86,43,30.18,30.09,0,0,0,0.00
2013-8-21,92.5,76.7,71.1,77.0,72.1,63.0,98,88,41,30.21,30.09,0,0,0,0.04
2013-8-22,96.1,79.7,70.0,76.0,68.2,55.9,98,74,28,30.12,29.97,0,0,0,0.00
2013-8-23,92.3,77.1,68.5,72.8,68.1,60.1,98,77,36,30.06,29.91,3,0,0,0.00
2013-8-24,86.9,73.1,64.4,63.2,56.7,42.6,91,62,23,30.30,30.06,3,0,0,0.00
2013-8-25,83.8,69.3,60.3,67.1,56.6,43.3,98,70,26,30.36,30.27,5,0,0,0.00
2013-8-26,91.2,69.5,54.7,65.6,54.2,39.8,98,69,18,30.30,30.09,4,0,4,0.00
2013-8-27,94.6,75.0,62.1,72.8,63.5,52.8,96,73,27,30.12,29.94,2,0,0,0.00
2013-8-28,84.4,75.7,68.9,75.8,72.5,68.3,98,90,63,29.97,29.85,0,0,0,0.00
2013-8-29,90.3,78.7,72.3,74.7,68.8,59.1,97,75,39,30.00,29.83,5,0,4,0.00
2013-8-30,97.2,77.1,67.1,70.6,63.0,47.3,98,70,20,30.06,29.91,3,0,0,0.00
2013-8-31,91.8,76.8,66.4,72.3,66.6,57.7,98,75,34,29.94,29.85,3,0,0,0.00
2013-9-1,95.2,77.5,70.7,75.6,70.0,61.5,98,82,35,29.88,29.77,5,0,0,1.17
2013-9-2,91.6,77.7,70.0,81.0,71.0,63.3,98,83,40,29.88,29.80,5,0,5,0.00
2013-9-3,94.5,78.6,71.1,76.9,70.3,57.9,98,80,32,29.94,29.80,0,0,0,0.08
2013-9-4,90.0,75.1,65.3,73.6,65.6,53.9,98,77,30,30.06,29.91,3,0,0,0.44
2013-9-5,95.2,74.9,64.0,70.5,59.9,41.3,98,70,17,30.09,30.03,0,0,0,0.00
2013-9-6,86.5,71.8,62.6,65.1,55.2,45.7,95,60,27,30.18,30.06,3,0,0,0.00
2013-9-7,90.3,70.8,58.5,65.6,58.1,48.3,98,71,26,30.12,29.97,0,0,0,0.00
2013-9-8,95.4,75.1,62.4,69.7,59.1,41.2,98,68,17,29.97,29.88,0,0,0,0.00
2013-9-9,94.5,76.4,65.5,71.5,63.9,52.4,98,72,27,30.15,29.97,4,0,0,0.00
2013-9-10,97.3,78.1,66.7,74.1,64.3,52.0,98,70,24,30.21,30.12,4,0,4,0.00
2013-9-11,96.4,77.7,66.7,71.0,64.0,50.2,98,69,23,30.18,30.06,2,0,0,0.00
2013-9-12,96.1,78.2,68.7,71.7,66.1,56.8,93,72,28,30.06,29.80,4,0,0,0.00
2013-9-13,91.2,75.2,64.8,69.9,57.0,39.7,96,61,19,29.88,29.77,5,0,0,0.00
2013-9-14,83.1,66.5,57.6,54.4,43.8,33.6,88,48,20,30.12,29.88,6,0,5,0.00
2013-9-15,88.2,66.6,51.8,60.9,51.4,39.5,97,67,19,30.21,30.09,2,0,0,0.00
2013-9-16,93.6,74.0,63.0,72.4,57.7,42.4,98,65,18,30.18,30.03,5,0,4,0.00
2013-9-17,82.6,67.9,58.5,53.4,45.6,33.7,78,49,20,30.30,30.18,5,0,5,0.00
2013-9-18,79.2,61.5,50.4,55.1,44.8,31.8,97,62,20,30.30,30.15,6,0,6,0.00
2013-9-19,81.3,66.3,53.8,56.4,52.4,41.8,93,66,29,30.18,30.06,0,0,0,0.00
2013-9-20,72.0,72.0,72.0,56.4,56.4,56.4,58,58,58,30.06,30.06,0,0,0,0.00
2013-9-21,72.0,72.0,72.0,56.4,56.4,56.4,58,58,58,30.06,30.06,0,0,0,0.00
2013-9-22,72.0,72.0,72.0,56.4,56.4,56.4,58,58,58,30.06,30.06,0,0,0,0.00
2013-9-23,72.0,72.0,72.0,56.4,56.4,56.4,58,58,58,30.06,30.06,0,0,0,0.00
2013-9-24,78.4,69.9,57.7,58.2,55.5,44.1,96,62,33,30.06,29.53,0,0,0,0.00
2013-9-25,76.1,63.1,51.6,64.7,56.5,44.9,98,82,36,29.94,29.85,0,0,0,0.00
2013-9-26,82.2,66.5,57.2,62.5,53.1,35.0,98,69,21,30.03,29.85,5,0,0,0.00
2013-9-27,76.6,62.7,54.0,62.8,51.8,42.4,98,73,31,30.18,30.03,6,0,6,0.00
2013-9-28,75.6,61.3,52.5,59.9,49.8,39.1,98,72,30,30.24,30.15,6,0,4,0.00
2013-9-29,78.6,61.9,52.0,61.7,49.3,35.3,98,71,23,30.15,30.00,4,0,0,0.00
2013-9-30,79.5,62.4,51.3,61.1,50.9,40.3,98,73,26,30.06,29.97,4,0,4,0.00
2013-10-1,89.1,66.0,52.2,65.5,54.0,41.8,98,74,21,30.09,30.00,4,0,0,0.00
2013-10-2,90.9,69.0,55.8,68.1,55.0,41.3,98,71,19,30.12,30.03,0,0,0,0.00
2013-10-3,91.4,70.7,58.8,66.2,57.6,43.5,98,71,20,30.12,30.03,4,0,0,0.00
2013-10-4,92.5,71.6,59.7,67.5,59.1,46.3,98,72,22,30.12,30.03,2,0,0,0.00
2013-10-5,93.9,73.6,61.0,68.8,58.9,43.8,98,69,19,30.09,30.00,2,0,0,0.00
2013-10-6,87.6,72.6,61.3,68.3,62.6,53.3,98,75,32,30.06,29.91,5,0,0,0.00
2013-10-7,72.9,70.5,62.6,72.1,68.9,61.1,98,95,85,29.97,29.83,0,0,0,1.80
2013-10-8,64.0,60.4,56.7,60.7,43.8,37.3,94,55,40,30.18,29.97,6,0,0,0.00
2013-10-9,64.9,59.1,55.2,55.3,48.2,43.4,98,68,54,30.15,30.06,7,0,7,0.12
2013-10-10,61.5,57.9,54.5,61.0,57.3,53.4,98,98,96,30.06,29.91,5,0,0,0.16
2013-10-11,69.3,63.4,59.7,63.7,60.0,56.7,98,89,66,29.94,29.88,2,0,0,0.04
2013-10-12,70.5,65.0,61.9,65.2,62.3,59.8,98,91,73,30.06,29.94,4,0,0,0.00
2013-10-13,68.0,64.5,62.4,64.0,62.0,60.5,98,92,80,30.21,30.06,4,0,0,0.08
2013-10-14,65.8,62.5,57.6,63.6,60.6,56.6,98,94,81,30.21,30.15,5,0,0,0.04
2013-10-15,78.3,63.4,52.5,60.2,54.0,42.0,98,76,32,30.18,30.03,4,0,4,0.00
2013-10-16,71.2,65.6,61.5,62.8,60.2,54.9,98,84,58,30.03,29.94,0,0,0,0.00
2013-10-17,77.0,66.9,60.3,66.5,61.3,53.8,98,84,49,29.94,29.83,0,0,0,0.00
2013-10-18,73.4,63.1,54.5,64.7,48.9,33.3,98,65,24,30.03,29.85,2,0,0,0.00
2013-10-19,70.5,62.2,57.9,62.6,58.7,55.3,98,89,67,29.97,29.80,2,0,0,0.04
2013-10-20,69.1,54.7,43.7,58.4,42.5,26.9,98,72,23,30.09,29.88,5,0,5,0.00
2013-10-21,71.8,52.0,38.1,59.2,41.0,29.3,98,74,23,30.15,29.97,2,0,0,0.00
2013-10-22,67.6,57.6,50.7,58.6,54.0,49.2,98,89,57,29.97,29.80,0,0,0,0.00
2013-10-23,70.0,59.0,46.8,59.0,41.6,21.6,98,61,23,29.97,29.68,6,0,6,0.00
2013-10-24,63.9,47.3,36.0,36.5,28.8,20.6,87,54,21,30.15,29.97,5,0,5,0.00
2013-10-25,61.2,45.8,36.1,31.7,25.4,14.0,77,49,19,30.33,30.15,5,0,0,0.00
2013-10-26,62.6,43.5,28.6,37.7,26.7,18.7,98,60,21,30.33,30.03,5,0,5,0.00
2013-10-27,72.3,53.1,41.4,44.0,34.7,25.8,90,56,19,30.09,30.00,4,0,0,0.00
2013-10-28,68.2,54.3,42.1,53.4,45.6,38.4,98,76,35,30.24,30.09,0,0,0,0.00
2013-10-29,75.2,59.4,50.9,57.1,50.9,42.0,98,78,33,30.30,30.21,2,0,0,0.00
2013-10-30,72.0,59.2,51.6,59.2,53.9,48.5,98,85,45,30.27,30.12,0,0,0,0.00
2013-10-31,74.3,62.9,54.1,61.5,54.2,45.8,98,77,40,30.18,29.91,3,0,0,0.00
2013-11-1,71.4,67.9,63.1,67.9,64.2,59.7,98,88,67,29.91,29.65,5,0,0,0.67
2013-11-2,74.5,60.7,50.2,62.6,50.5,30.0,98,77,22,29.91,29.71,5,0,5,0.04
2013-11-3,65.8,50.1,40.5,44.0,35.2,23.6,98,64,23,30.33,29.91,6,0,6,0.00
2013-11-4,57.4,44.0,35.4,37.5,28.5,19.7,93,60,25,30.50,30.33,4,0,0,0.00
2013-11-5,57.9,48.1,36.1,47.2,36.0,28.5,86,65,39,30.53,30.39,2,0,0,0.00
2013-11-6,70.7,55.7,43.5,52.8,46.9,39.5,98,77,34,30.39,30.09,4,0,0,0.00
2013-11-7,69.8,58.3,41.7,65.5,47.3,21.3,98,71,30,30.09,29.91,0,0,0,0.00
2013-11-8,60.1,44.2,32.7,31.9,22.9,13.3,80,48,19,30.30,30.09,6,0,0,0.00
2013-11-9,59.4,43.4,29.1,38.4,25.6,15.8,97,57,19,30.36,30.15,0,0,0,0.00
2013-11-10,71.6,50.1,34.3,44.3,29.6,20.8,98,55,17,30.21,30.03,3,0,0,0.00
2013-11-11,47.7,38.4,32.0,31.4,28.0,18.5,80,68,32,30.33,30.21,3,0,0,0.00
2013-11-12,38.3,38.3,38.3,31.4,31.4,31.4,76,76,76,30.33,30.12,0,0,0,0.00
2013-11-13,38.3,38.3,38.3,31.4,31.4,31.4,76,76,76,30.44,30.12,0,0,0,0.00
2013-11-14,38.3,38.3,38.3,31.4,31.4,31.4,76,76,76,30.44,30.44,0,0,0,0.00
2013-11-15,38.3,38.3,38.3,31.4,31.4,31.4,76,76,76,30.44,30.44,0,0,0,0.00
2013-11-16,64.8,48.7,38.3,53.0,42.5,31.4,98,80,62,30.44,29.83,0,0,0,0.00
2013-11-17,67.8,60.3,53.6,64.9,57.2,53.0,98,90,66,30.21,29.88,2,0,0,0.00
2013-11-18,77.2,65.3,53.4,67.2,46.0,18.3,98,58,22,29.94,29.80,3,0,0,0.00
2013-11-19,59.7,48.0,39.9,24.7,19.4,13.9,52,33,19,30.30,29.94,4,0,0,0.00
2013-11-20,53.6,43.9,35.8,32.8,21.8,17.3,72,43,27,30.42,30.30,5,0,0,0.00
2013-11-21,60.6,49.7,40.3,39.8,34.5,30.1,77,57,38,30.48,30.36,3,0,0,0.00
2013-11-22,69.6,57.6,46.6,59.9,48.8,39.9,97,74,52,30.36,30.06,4,0,0,0.00
2013-11-23,60.8,55.0,42.6,60.1,37.2,11.0,98,58,25,30.15,30.00,0,0,0,0.00
2013-11-24,42.4,32.8,23.0,12.5,1.5,-5.1,43,26,21,30.50,30.15,7,0,6,0.00
2013-11-25,43.7,30.5,17.2,10.2,5.1,-0.1,63,36,20,30.53,30.36,4,0,4,0.00
2013-11-26,64.6,43.5,35.4,63.8,30.6,5.7,98,67,26,30.36,29.59,4,0,0,0.00
2013-11-27,47.8,39.9,28.8,47.3,35.4,9.7,98,86,44,30.15,29.50,3,0,0,0.00
2013-11-28,45.3,31.5,22.8,20.3,13.3,6.7,81,50,22,30.44,30.15,2,0,0,0.00
2013-11-29,52.2,34.2,22.3,33.6,18.9,10.9,96,61,21,30.59,30.44,5,0,0,0.00
2013-11-30,49.5,35.4,26.6,26.2,21.0,15.8,88,59,30,30.62,30.36,4,0,0,0.00
2013-12-1,59.0,39.4,25.5,37.3,25.9,18.6,98,66,22,30.36,30.00,4,0,4,0.00
2013-12-2,60.6,43.9,33.1,38.7,32.9,29.0,93,70,32,30.00,29.80,4,0,0,0.00
2013-12-3,55.4,44.4,31.8,47.2,37.8,31.3,98,81,47,29.97,29.85,3,0,0,0.00
2013-12-4,64.6,55.3,48.0,55.8,51.7,46.1,98,89,61,30.09,29.94,2,0,0,0.00
2013-12-5,66.6,60.8,53.1,66.0,60.1,52.5,98,97,91,30.12,30.03,2,0,0,0.00
2013-12-6,77.7,68.3,62.4,66.2,60.0,52.3,98,78,43,30.06,29.94,6,0,6,0.00
2013-12-7,67.3,49.1,43.2,63.9,40.3,25.8,97,73,50,30.44,29.97,6,0,6,0.00
2013-12-8,43.2,36.3,33.8,34.6,29.2,18.5,98,79,41,30.44,30.27,5,0,5,0.00
2013-12-9,45.5,40.2,34.9,45.0,39.7,34.4,98,98,98,30.27,30.03,0,0,0,0.00
2013-12-10,46.9,42.7,28.0,46.0,39.8,20.9,98,90,50,30.30,29.91,5,0,0,0.00
2013-12-11,49.5,34.1,23.0,34.7,22.7,11.9,98,71,24,30.44,30.27,5,0,5,0.00
2013-12-12,47.8,33.7,24.4,29.5,15.4,3.5,98,54,20,30.39,30.24,5,0,0,0.00
2013-12-13,52.2,33.8,20.8,27.1,17.2,7.6,91,58,18,30.36,30.24,4,0,4,0.00
2013-12-14,47.3,39.9,35.1,43.2,35.5,23.4,98,86,39,30.27,29.77,4,0,4,0.00
2013-12-15,55.0,42.7,31.5,50.0,32.4,21.3,98,72,36,30.06,29.71,4,0,0,0.00
2013-12-16,55.2,37.8,26.4,36.5,27.3,20.2,98,72,26,30.15,30.06,4,0,0,0.00
2013-12-17,59.0,42.2,29.1,44.2,29.8,24.1,98,69,28,30.09,29.85,4,0,4,0.00
2013-12-18,51.8,38.5,27.5,45.8,14.1,6.4,80,41,19,30.27,29.88,6,0,6,0.00
2013-12-19,61.9,40.8,24.3,31.4,19.4,13.4,91,50,16,30.30,30.18,5,0,5,0.00
2013-12-20,66.7,49.8,35.4,45.7,35.8,23.2,87,61,36,30.24,30.09,4,0,0,0.00
2013-12-21,72.9,57.6,44.1,66.4,51.1,43.5,98,82,44,30.12,30.03,5,0,5,0.00
2013-12-22,77.2,69.5,63.0,65.6,61.2,51.6,98,78,43,30.09,30.00,8,0,8,0.00
2013-12-23,66.4,60.1,46.2,65.8,57.9,28.6,98,93,50,30.15,30.00,3,0,0,0.00
2013-12-24,48.7,41.0,28.8,29.3,18.0,2.6,57,40,28,30.42,30.12,5,0,0,0.00
2013-12-25,39.2,28.7,21.9,13.3,5.0,-0.5,68,38,21,30.53,30.36,3,0,0,0.00
2013-12-26,52.5,34.9,21.9,26.6,18.7,11.8,82,57,21,30.36,30.21,0,0,0,0.00
2013-12-27,53.1,34.8,23.0,29.7,17.7,7.6,91,58,18,30.44,30.33,4,0,0,0.00
2013-12-28,58.3,39.4,22.6,29.3,22.2,15.2,94,57,19,30.39,30.15,3,0,0,0.00
2013-12-29,54.0,46.4,40.1,53.0,44.3,29.0,98,93,53,30.15,29.71,2,0,0,0.00
2013-12-30,55.2,43.9,34.9,52.0,36.4,27.2,98,78,41,30.12,29.91,0,0,0,0.00
2013-12-31,51.6,40.7,29.7,40.7,25.9,11.4,98,61,21,30.33,30.09,5,0,5,0.00
2014-1-1,51.3,37.2,28.2,32.7,23.4,14.4,94,64,24,30.42,30.12,4,0,4,0.00
2014-1-2,46.9,40.9,34.0,45.0,35.4,26.9,98,82,50,30.12,29.59,0,0,0,0.00